AU709 Weather Reports


time (UTC)temp
F
wind
direction
speed
knots
gust
knots
rain 1hr
in
rain 24hr
in
rain mn
in
humidity
%
barometer
mb
20260507160053 63 165 2.6 5.2 0.00 0.00 0.00 69 1016.6
20260507154547 62 0 0.0 1.7 0.00 0.00 0.00 72 1016.7
20260507153054 61 0 0.0 0.9 0.00 0.00 0.00 73 1016.6
20260507151549 60 163 0.0 3.5 0.00 0.00 0.00 75 1016.7
20260507150047 59 162 0.0 4.3 0.00 0.00 0.00 80 1016.6
20260507144545 58 0 0.0 0.9 0.00 0.00 0.00 88 1016.4
20260507143045 57 0 0.0 0.0 0.00 0.00 0.00 91 1016.3
20260507141552 56 0 0.0 0.0 0.00 0.00 0.00 92 1016.1
20260507140053 55 0 0.0 0.9 0.00 0.00 0.00 92 1016.1
20260507134553 54 0 0.0 1.7 0.00 0.00 0.00 91 1016.1
20260507133057 54 0 0.0 0.9 0.00 0.00 0.00 90 1015.9
20260507131557 54 0 0.0 0.9 0.00 0.00 0.00 90 1016.0
20260507130107 54 0 0.0 0.0 0.00 0.00 0.00 90 1015.7
20260507124554 54 0 0.0 0.0 0.00 0.00 0.00 90 1015.6
20260507123049 54 0 0.0 0.0 0.00 0.00 0.00 89 1015.5
20260507121558 54 0 0.0 0.0 0.00 0.00 0.00 88 1015.4
20260507120047 53 0 0.0 0.0 0.00 0.00 0.00 87 1015.4
20260507114604 54 0 0.0 0.0 0.00 0.00 0.00 86 1015.5
20260507113053 54 0 0.0 0.0 0.00 0.00 0.00 86 1015.6
20260507111559 54 0 0.0 0.9 0.00 0.00 0.00 86 1015.7
20260507110052 54 163 0.0 0.9 0.00 0.00 0.00 88 1015.9
20260507104553 54 0 0.0 0.9 0.00 0.00 0.00 88 1015.9
20260507103046 54 0 0.0 0.9 0.00 0.00 0.00 88 1016.0
20260507101545 55 0 0.0 0.0 0.00 0.00 0.00 88 1016.1
20260507100053 55 0 0.0 0.0 0.00 0.00 0.00 87 1016.0
20260507094553 55 0 0.0 0.0 0.00 0.00 0.00 85 1016.4
20260507093055 55 0 0.0 0.9 0.00 0.00 0.00 85 1016.5
20260507091552 55 0 0.0 0.0 0.00 0.00 0.00 86 1016.6
20260507090045 55 0 0.0 0.0 0.00 0.00 0.00 86 1016.4
20260507084548 55 0 0.0 0.9 0.00 0.00 0.00 86 1016.8
20260507083052 55 0 0.0 0.0 0.00 0.00 0.00 85 1016.7
20260507081554 55 0 0.0 0.0 0.00 0.00 0.00 85 1016.9
20260507080053 55 0 0.0 0.0 0.00 0.00 0.00 84 1017.2
20260507074605 55 0 0.0 0.9 0.00 0.00 0.00 84 1017.2
20260507073049 55 0 0.0 1.7 0.00 0.00 0.00 85 1017.2
20260507071551 55 0 0.0 0.9 0.00 0.00 0.00 85 1017.3
20260507070054 55 0 0.0 0.0 0.00 0.00 0.00 85 1017.3
20260507064554 56 0 0.0 0.0 0.00 0.00 0.00 84 1017.3
20260507063052 56 0 0.0 0.0 0.00 0.00 0.00 83 1017.3
20260507061552 56 0 0.0 0.0 0.00 0.00 0.00 82 1017.5
20260507060054 56 0 0.0 0.9 0.00 0.00 0.00 82 1017.5
20260507054621 56 0 0.0 0.0 0.00 0.00 0.00 82 1017.5
20260507053055 56 0 0.0 0.9 0.00 0.00 0.00 83 1017.5
20260507051549 56 0 0.0 0.0 0.00 0.00 0.00 83 1017.5
20260507050056 57 0 0.0 0.0 0.00 0.00 0.00 82 1017.5
20260507044559 57 0 0.0 0.9 0.00 0.00 0.00 82 1017.2
20260507043055 57 0 0.0 1.7 0.00 0.00 0.00 81 1017.2
20260507041605 57 0 0.0 0.9 0.00 0.00 0.00 81 1017.2
20260507040055 58 0 0.0 0.0 0.00 0.00 0.00 78 1017.2
20260507034558 58 0 0.0 0.0 0.00 0.00 0.00 78 1017.1
20260507033054 58 0 0.0 0.9 0.00 0.00 0.00 77 1017.0
20260507031602 58 0 0.0 3.5 0.00 0.00 0.00 76 1016.8
20260507030056 59 165 0.9 4.3 0.00 0.00 0.00 74 1016.9
20260507024546 59 166 0.9 5.2 0.00 0.00 0.00 73 1016.8
20260507023102 60 166 2.6 6.1 0.00 0.00 0.00 71 1016.6
20260507021543 60 166 1.7 6.1 0.00 0.00 0.00 68 1016.5
20260507020050 61 166 0.9 5.2 0.00 0.00 0.00 66 1016.4
20260507014602 62 166 1.7 6.1 0.00 0.00 0.00 65 1016.4
20260507013053 63 166 2.6 5.2 0.00 0.00 0.00 64 1016.4
20260507011551 63 166 0.9 5.2 0.00 0.00 0.00 63 1016.4
20260507010043 63 166 4.3 8.7 0.00 0.00 0.00 65 1016.3
20260507004550 64 155 3.5 7.0 0.00 0.00 0.00 64 1016.2
20260507003049 65 145 2.6 8.7 0.00 0.00 0.00 64 1016.2
20260507001602 66 0 1.7 8.7 0.00 0.00 0.00 62 1016.0
20260507000054 66 178 2.6 6.1 0.00 0.00 0.00 62 1015.8
20260506234554 65 179 3.5 7.8 0.00 0.00 0.00 63 1015.9
20260506233108 66 180 1.7 9.6 0.00 0.00 0.00 62 1015.9
20260506231550 66 198 2.6 6.1 0.00 0.00 0.00 63 1015.9
20260506230051 66 222 4.3 9.6 0.00 0.00 0.00 63 1015.9
20260506224549 68 232 1.7 10.4 0.00 0.00 0.00 61 1016.0
20260506223055 68 273 1.7 8.7 0.00 0.00 0.00 59 1016.2
20260506221552 68 316 2.6 7.8 0.00 0.00 0.00 59 1016.2
20260506220052 68 236 2.6 9.6 0.00 0.00 0.00 58 1016.3
20260506214551 69 247 2.6 8.7 0.00 0.00 0.00 58 1016.3
20260506213110 68 309 2.6 9.6 0.00 0.00 0.00 57 1016.5
20260506211551 68 209 1.7 7.8 0.00 0.00 0.00 57 1016.6
20260506210055 69 219 1.7 6.1 0.00 0.00 0.00 56 1016.6
20260506204553 68 216 1.7 7.0 0.00 0.00 0.00 57 1016.7
20260506203050 69 274 1.7 7.8 0.00 0.00 0.00 58 1016.7
20260506201551 69 281 3.5 9.6 0.00 0.00 0.00 55 1016.8
20260506200048 70 264 0.9 5.2 0.00 0.00 0.00 51 1016.8
20260506194604 69 269 0.9 6.1 0.00 0.00 0.00 49 1017.2
20260506193050 68 276 1.7 6.1 0.00 0.00 0.00 49 1017.4
20260506191552 68 257 1.7 6.1 0.00 0.00 0.00 49 1017.5
20260506190051 68 256 1.7 6.1 0.00 0.00 0.00 49 1017.6
20260506184549 67 0 0.0 7.0 0.00 0.00 0.00 52 1017.7
20260506183049 66 250 1.7 6.1 0.00 0.00 0.00 51 1017.8
20260506181551 65 242 0.0 7.0 0.00 0.00 0.00 52 1018.1
20260506174553 65 232 0.9 6.1 0.00 0.00 0.00 54 1018.3
20260506173057 63 219 0.9 5.2 0.00 0.00 0.00 62 1018.1
20260506171550 62 0 1.7 5.2 0.00 0.00 0.00 60 1018.3
20260506170103 62 219 0.0 4.3 0.00 0.00 0.00 64 1018.3
20260506164554 61 0 0.0 6.1 0.00 0.00 0.00 66 1018.3
20260506163114 60 0 0.0 4.3 0.00 0.00 0.00 68 1018.2
20260506161551 58 195 2.6 7.0 0.00 0.00 0.00 70 1018.2